| time (UTC) | temp C | wind direction | speed KPH | gust KPH | rain 1hr cm | rain 24hr cm | rain mn cm | humidity % | barometer mb |
| 20260506131556 | 10 | 193 | 0.0 | 0.0 | 0.00 | 0.00 | 0.00 | 90 | 1020.5 |
| 20260506130054 | 10 | 193 | 0.0 | 3.2 | 0.00 | 0.00 | 0.00 | 90 | 1020.2 |
| 20260506124556 | 10 | 193 | 0.0 | 3.2 | 0.00 | 0.00 | 0.00 | 91 | 1020.3 |
| 20260506123053 | 10 | 193 | 0.0 | 0.0 | 0.00 | 0.00 | 0.00 | 90 | 1020.4 |
| 20260506121553 | 10 | 193 | 0.0 | 0.0 | 0.00 | 0.00 | 0.00 | 90 | 1020.1 |
| 20260506120051 | 10 | 193 | 0.0 | 3.2 | 0.00 | 0.00 | 0.00 | 90 | 1020.0 |
| 20260506114557 | 10 | 193 | 0.0 | 1.6 | 0.00 | 0.00 | 0.00 | 90 | 1020.0 |
| 20260506113052 | 10 | 193 | 0.0 | 1.6 | 0.00 | 0.00 | 0.00 | 90 | 1020.4 |
| 20260506111551 | 10 | 193 | 0.0 | 1.6 | 0.00 | 0.00 | 0.00 | 90 | 1020.4 |
| 20260506110046 | 10 | 193 | 0.0 | 1.6 | 0.00 | 0.00 | 0.00 | 90 | 1020.3 |
| 20260506104554 | 10 | 193 | 0.0 | 0.0 | 0.00 | 0.00 | 0.00 | 90 | 1020.0 |
| 20260506103044 | 10 | 193 | 0.0 | 1.6 | 0.00 | 0.00 | 0.00 | 90 | 1019.9 |
| 20260506101549 | 10 | 193 | 0.0 | 0.0 | 0.00 | 0.00 | 0.00 | 90 | 1020.1 |
| 20260506100040 | 10 | 193 | 0.0 | 0.0 | 0.00 | 0.00 | 0.00 | 91 | 1020.1 |
| 20260506094539 | 10 | 193 | 0.0 | 1.6 | 0.00 | 0.00 | 0.00 | 91 | 1019.9 |
| 20260506093037 | 10 | 193 | 0.0 | 4.8 | 0.00 | 0.00 | 0.00 | 91 | 1019.5 |
| 20260506091537 | 10 | 194 | 0.0 | 0.0 | 0.00 | 0.00 | 0.00 | 91 | 1019.5 |
| 20260506090036 | 10 | 194 | 0.0 | 4.8 | 0.00 | 0.00 | 0.00 | 91 | 1019.6 |
| 20260506084540 | 11 | 163 | 0.0 | 0.0 | 0.00 | 0.00 | 0.00 | 92 | 1019.6 |
| 20260506083033 | 11 | 162 | 0.0 | 0.0 | 0.00 | 0.00 | 0.00 | 92 | 1019.6 |
| 20260506081531 | 11 | 159 | 0.0 | 4.8 | 0.00 | 0.00 | 0.00 | 92 | 1019.6 |
| 20260506073026 | 11 | 246 | 0.0 | 3.2 | 0.00 | 0.00 | 0.00 | 91 | 1019.5 |
| 20260506071523 | 11 | 247 | 0.0 | 1.6 | 0.00 | 0.00 | 0.00 | 91 | 1019.4 |
| 20260506061517 | 11 | 180 | 0.0 | 4.8 | 0.00 | 0.00 | 0.00 | 90 | 1019.0 |
| 20260506044515 | 12 | 238 | 0.0 | 6.4 | 0.00 | 0.00 | 0.00 | 88 | 1018.8 |
| 20260506043011 | 12 | 234 | 0.0 | 4.8 | 0.00 | 0.00 | 0.00 | 88 | 1018.8 |
| 20260506041511 | 12 | 234 | 0.0 | 1.6 | 0.00 | 0.00 | 0.00 | 88 | 1018.7 |
| 20260506040018 | 12 | 234 | 0.0 | 0.0 | 0.00 | 0.00 | 0.00 | 87 | 1018.6 |
| 20260506034511 | 12 | 227 | 0.0 | 4.8 | 0.00 | 0.00 | 0.00 | 87 | 1018.3 |
| 20260506033008 | 13 | 237 | 0.0 | 1.6 | 0.00 | 0.00 | 0.00 | 87 | 1018.2 |
| 20260506031508 | 13 | 237 | 0.0 | 0.0 | 0.00 | 0.00 | 0.00 | 86 | 1017.9 |
| 20260506030007 | 13 | 236 | 0.0 | 1.6 | 0.00 | 0.00 | 0.00 | 85 | 1017.7 |
| 20260506024506 | 13 | 234 | 0.0 | 4.8 | 0.00 | 0.00 | 0.00 | 84 | 1017.8 |
| 20260506023006 | 13 | 163 | 1.6 | 4.8 | 0.00 | 0.00 | 0.00 | 83 | 1017.7 |
| 20260506021511 | 14 | 174 | 0.0 | 8.0 | 0.00 | 0.00 | 0.00 | 82 | 1017.9 |
| 20260506020004 | 14 | 209 | 0.0 | 4.8 | 0.00 | 0.00 | 0.00 | 82 | 1018.0 |
| 20260506014503 | 15 | 111 | 1.6 | 6.4 | 0.00 | 0.00 | 0.00 | 80 | 1017.9 |
| 20260506013001 | 15 | 211 | 0.0 | 9.7 | 0.00 | 0.00 | 0.00 | 78 | 1017.7 |
| 20260506011502 | 16 | 166 | 1.6 | 9.7 | 0.00 | 0.00 | 0.00 | 79 | 1017.8 |
| 20260506010118 | 16 | 148 | 1.6 | 6.4 | 0.00 | 0.00 | 0.00 | 77 | 1017.7 |
| 20260506004602 | 16 | 198 | 1.6 | 16.1 | 0.00 | 0.00 | 0.00 | 77 | 1017.8 |
| 20260506003058 | 16 | 146 | 1.6 | 11.3 | 0.00 | 0.00 | 0.00 | 78 | 1017.9 |
| 20260506001558 | 17 | 243 | 3.2 | 9.7 | 0.00 | 0.00 | 0.00 | 73 | 1017.8 |
| 20260506000057 | 17 | 196 | 4.8 | 14.5 | 0.00 | 0.00 | 0.00 | 73 | 1017.9 |
| 20260505234606 | 17 | 196 | 4.8 | 11.3 | 0.00 | 0.00 | 0.00 | 73 | 1018.1 |
| 20260505233050 | 17 | 68 | 1.6 | 8.0 | 0.00 | 0.00 | 0.00 | 72 | 1018.0 |
| 20260505231548 | 17 | 350 | 1.6 | 8.0 | 0.00 | 0.00 | 0.00 | 74 | 1017.8 |
| 20260505230046 | 17 | 169 | 1.6 | 8.0 | 0.00 | 0.00 | 0.00 | 74 | 1018.0 |
| 20260505224543 | 17 | 271 | 1.6 | 9.7 | 0.00 | 0.00 | 0.00 | 72 | 1017.9 |
| 20260505223042 | 17 | 205 | 4.8 | 11.3 | 0.00 | 0.00 | 0.00 | 72 | 1018.2 |
| 20260505221539 | 17 | 101 | 8.0 | 14.5 | 0.00 | 0.00 | 0.00 | 72 | 1018.3 |
| 20260505220035 | 17 | 224 | 3.2 | 8.0 | 0.00 | 0.00 | 0.00 | 72 | 1018.2 |
| 20260505214557 | 16 | 154 | 0.0 | 4.8 | 0.00 | 0.00 | 0.00 | 77 | 1018.0 |
| 20260505213028 | 16 | 138 | 1.6 | 8.0 | 0.00 | 0.00 | 0.00 | 77 | 1018.2 |
| 20260505211526 | 16 | 169 | 1.6 | 9.7 | 0.00 | 0.00 | 0.00 | 77 | 1018.4 |
| 20260505210022 | 16 | 254 | 0.0 | 6.4 | 0.00 | 0.00 | 0.00 | 78 | 1018.4 |
| 20260505204520 | 15 | 175 | 1.6 | 6.4 | 0.00 | 0.00 | 0.00 | 80 | 1018.5 |
| 20260505203026 | 15 | 347 | 1.6 | 8.0 | 0.00 | 0.00 | 0.00 | 81 | 1018.7 |
| 20260505201522 | 15 | 202 | 1.6 | 11.3 | 0.00 | 0.00 | 0.00 | 81 | 1018.5 |
| 20260505200009 | 15 | 191 | 3.2 | 8.0 | 0.00 | 0.00 | 0.00 | 81 | 1018.6 |
| 20260505194505 | 14 | 220 | 3.2 | 9.7 | 0.00 | 0.00 | 0.00 | 83 | 1018.5 |
| 20260505193002 | 14 | 143 | 3.2 | 11.3 | 0.00 | 0.00 | 0.00 | 84 | 1018.4 |
| 20260505191603 | 14 | 16 | 1.6 | 6.4 | 0.00 | 0.00 | 0.00 | 85 | 1018.4 |
| 20260505190056 | 13 | 178 | 3.2 | 6.4 | 0.00 | 0.00 | 0.00 | 85 | 1018.3 |
| 20260505184555 | 13 | 244 | 0.0 | 8.0 | 0.00 | 0.00 | 0.00 | 86 | 1018.2 |
| 20260505183054 | 13 | 185 | 0.0 | 8.0 | 0.00 | 0.00 | 0.00 | 86 | 1018.0 |
| 20260505181548 | 13 | 140 | 0.0 | 11.3 | 0.00 | 0.00 | 0.00 | 87 | 1017.9 |
| 20260505180104 | 13 | 246 | 0.0 | 6.4 | 0.00 | 0.00 | 0.00 | 87 | 1017.8 |
| 20260505174559 | 13 | 214 | 0.0 | 4.8 | 0.00 | 0.00 | 0.00 | 88 | 1017.6 |
| 20260505173046 | 13 | 215 | 3.2 | 6.4 | 0.00 | 0.00 | 0.00 | 87 | 1017.7 |
| 20260505171541 | 12 | 228 | 0.0 | 6.4 | 0.00 | 0.00 | 0.00 | 88 | 1017.6 |
| 20260505170039 | 12 | 190 | 0.0 | 4.8 | 0.00 | 0.00 | 0.00 | 88 | 1017.5 |
| 20260505164536 | 12 | 242 | 0.0 | 4.8 | 0.00 | 0.00 | 0.00 | 89 | 1017.6 |
| 20260505163035 | 12 | 269 | 0.0 | 1.6 | 0.00 | 0.00 | 0.00 | 89 | 1017.5 |
| 20260505161535 | 12 | 213 | 0.0 | 4.8 | 0.00 | 0.00 | 0.00 | 90 | 1017.4 |
| 20260505153028 | 12 | 140 | 0.0 | 8.0 | 0.00 | 0.00 | 0.00 | 91 | 1017.1 |
| 20260505151521 | 11 | 159 | 0.0 | 8.0 | 0.00 | 0.00 | 0.00 | 91 | 1017.0 |